User: anonymous   Login
Location: Granada
(37.1830°N, 3.6000°W)
Time: 09:58:28
(UTC+02:00)
Language:

Iridium 70 - Orbit

View from above orbital plane
View from above orbital plane
View from above satellite
View from above satellite

Ground track
Ground track

The orbit data is extracted from the following two-line orbital elements,

1 25342U 98032A   14295.49416456  .00000412  00000-0  14010-3 0   119
2 25342 086.3947 269.0758 0002084 100.4864 016.6762 14.34220250860251
Epoch (UTC): 22 October 2014 11:51:35
Eccentricity: 0.0002084
inclination: 86.3947°
perigee height: 776 km
apogee height: 779 km
right ascension of ascending node: 269.0758°
argument of perigee: 100.4864°
revolutions per day: 14.34220250
mean anomaly at epoch: 16.6762°
orbit number at epoch: 86025

The dashed part of the orbit path shows where the satellite is in the earth's shadow,  

DLR